Weather History for Moriarty, NM

Change the Weather History Date:

Thursday, June 27, 2013

  Actual Average (KABQ) Record (KABQ)
Temperature  
Mean Temperature 74 °F 78 °F  
Max Temperature 99 °F 91 °F 105 °F (2013)
Min Temperature 49 °F 65 °F 46 °F (1915)
Degree Days  
Heating Degree Days 0 0  
Month to date heating degree days 0  
Since 1 June heating degree days 0  
Since 1 July heating degree days 4175  
Cooling Degree Days 9 13  
Month to date cooling degree days 262  
Year to date cooling degree days 360  
Since 1 June cooling degree days 262  
Growing Degree Days 24 (Base 50)    
Moisture  
Dew Point 26 °F    
Average Humidity 16    
Maximum Humidity 28    
Minimum Humidity 9    
Precipitation  
Precipitation 0.00 in 0.03 in 0.76 in (1966)
Month to date precipitation 0.56  
Year to date precipitation 3.10  
Snow  
Snow 0.00 in - - ()
Month to date snowfall  
Since 1 June snowfall  
Since 1 July snowfall  
Snow Depth -    
Sea Level Pressure  
Sea Level Pressure 30.25 in    
Wind  
Wind Speed 5 mph (ENE)    
Max Wind Speed 18 mph    
Max Gust Speed 23 mph    
Visibility 10 miles    
Events      
T = Trace of Precipitation, MM = Missing Value Source: NWS Daily Summary

Daily Weather History Graph

Daily Weather History Graph

Search for Another Location

Airport:

Trip Planner

Search our weather history database for the weather conditions in past years. The results will help you decide how hot, cold, wet, or windy it might be!

Date:

Astronomy

Jun. 27, 2013 Rise Set
Actual Time 5:52 AM MDT 8:21 PM MDT
Civil Twilight 5:22 AM MDT 8:51 PM MDT
Nautical Twilight 4:45 AM MDT 9:28 PM MDT
Astronomical Twilight 4:05 AM MDT 10:08 PM MDT
Moon 11:34 PM MDT (6/27) 10:44 AM MDT (6/27)
Length of Visible Light 15h 29m
Length of Day
14h 29m
Waning Gibbous, 76% of the Moon is Illuminated
Jun 27
Waning Gibbous
Jun 29
Last Quarter
Jul 8
New
Jul 15
First Quarter
Jul 22
Full

Hourly Weather History & Observations

Time (MDT) Temp. Dew Point Humidity Pressure Visibility Wind Dir Wind Speed Gust Speed Precip Events Conditions
12:15 AM 62.8 °F 18.1 °F 18% 30.23 in 10.0 mi Calm Calm - N/A   Clear
12:35 AM 63.7 °F 18.3 °F 17% 30.22 in 10.0 mi Calm Calm - N/A   Clear
12:55 AM 59.2 °F 17.2 °F 20% 30.22 in 10.0 mi WNW 5.8 mph - N/A   Clear
1:15 AM 58.8 °F 17.6 °F 20% 30.23 in 10.0 mi Calm Calm - N/A   Clear
1:35 AM 57.9 °F 18.1 °F 21% 30.22 in 10.0 mi NNW 4.6 mph - N/A   Clear
1:55 AM 56.1 °F 18.1 °F 23% 30.22 in 10.0 mi North 3.5 mph - N/A   Clear
2:15 AM 56.7 °F 18.3 °F 22% 30.22 in 10.0 mi NE 3.5 mph - N/A   Clear
2:35 AM 55.6 °F 18.0 °F 23% 30.22 in 10.0 mi Calm Calm - N/A   Clear
2:55 AM 54.9 °F 19.8 °F 25% 30.23 in 10.0 mi ENE 4.6 mph - N/A   Clear
3:15 AM 57.2 °F 19.4 °F 23% 30.23 in 10.0 mi NE 4.6 mph - N/A   Clear
3:35 AM 55.9 °F 18.9 °F 24% 30.23 in 10.0 mi NNE 5.8 mph - N/A   Clear
3:55 AM 57.7 °F 18.5 °F 22% 30.23 in 10.0 mi North 3.5 mph - N/A   Clear
4:15 AM 51.8 °F 17.4 °F 26% 30.23 in 10.0 mi North 8.1 mph - N/A   Clear
4:35 AM 51.4 °F 18.0 °F 27% 30.24 in 10.0 mi North 5.8 mph - N/A   Clear
4:55 AM 52.2 °F 17.8 °F 26% 30.25 in 7.0 mi East 3.5 mph - N/A   Clear
5:15 AM 54.7 °F 19.6 °F 25% 30.25 in 2.5 mi Calm Calm - N/A   Haze
5:35 AM 49.8 °F 16.9 °F 27% 30.25 in 10.0 mi Calm Calm - N/A   Clear
5:55 AM 49.3 °F 17.2 °F 28% 30.26 in 10.0 mi Calm Calm - N/A   Clear
6:15 AM 50.4 °F 17.6 °F 27% 30.26 in 10.0 mi NNE 3.5 mph - N/A   Clear
6:35 AM 52.2 °F 18.1 °F 26% 30.27 in 10.0 mi Calm Calm - N/A   Clear
6:55 AM 55.6 °F 19.8 °F 25% 30.28 in 10.0 mi Calm Calm - N/A   Clear
7:15 AM 59.7 °F 21.2 °F 23% 30.28 in 10.0 mi Calm Calm - N/A   Clear
7:35 AM 64.6 °F 22.8 °F 20% 30.29 in 10.0 mi Calm Calm - N/A   Clear
7:55 AM 69.4 °F 23.7 °F 18% 30.29 in 10.0 mi NE 3.5 mph - N/A   Clear
8:15 AM 75.7 °F 25.9 °F 16% 30.29 in 10.0 mi North 5.8 mph - N/A   Clear
8:35 AM 79.2 °F 27.3 °F 15% 30.29 in 10.0 mi North 6.9 mph - N/A   Clear
8:55 AM 82.9 °F 28.8 °F 14% 30.29 in 10.0 mi North 11.5 mph - N/A   Clear
9:15 AM 86.9 °F 29.8 °F 13% 30.29 in 10.0 mi North 12.7 mph - N/A   Clear
9:35 AM 88.7 °F 30.2 °F 12% 30.29 in 10.0 mi North 13.8 mph 19.6 mph N/A   Clear
9:55 AM 90.1 °F 30.6 °F 12% 30.29 in 10.0 mi North 13.8 mph - N/A   Clear
10:15 AM 91.6 °F 30.6 °F 11% 30.29 in 10.0 mi North 13.8 mph 20.7 mph N/A   Clear
10:35 AM 92.7 °F 30.9 °F 11% 30.28 in 10.0 mi NNW 11.5 mph 17.3 mph N/A   Clear
10:55 AM 93.6 °F 30.7 °F 11% 30.29 in 10.0 mi North 9.2 mph 18.4 mph N/A   Clear
11:15 AM 95.0 °F 30.2 °F 10% 30.28 in 10.0 mi North 11.5 mph 17.3 mph N/A   Clear
11:35 AM 95.5 °F 29.8 °F 10% 30.28 in 10.0 mi NNW 10.4 mph 18.4 mph N/A   Clear
11:55 AM 95.4 °F 29.3 °F 10% 30.27 in 10.0 mi NE 8.1 mph 17.3 mph N/A   Clear
12:15 PM 96.8 °F 29.1 °F 9% 30.27 in 10.0 mi SSE 4.6 mph 16.1 mph N/A   Clear
12:35 PM 95.2 °F 29.3 °F 10% 30.26 in 10.0 mi SSE 18.4 mph 23.0 mph N/A   Clear
12:55 PM 98.4 °F 30.0 °F 9% 30.26 in 10.0 mi East 6.9 mph - N/A   Clear
1:15 PM 95.2 °F 29.1 °F 10% 30.26 in 10.0 mi East 3.5 mph - N/A   Clear
1:35 PM 94.1 °F 28.4 °F 10% 30.26 in 10.0 mi NE 4.6 mph - N/A   Clear
1:55 PM 96.8 °F 29.3 °F 9% 30.25 in 10.0 mi ENE 8.1 mph - N/A   Clear
2:15 PM 99.0 °F 30.0 °F 9% 30.25 in 10.0 mi SE 10.4 mph - N/A   Clear
2:35 PM 98.6 °F 29.8 °F 9% 30.24 in 10.0 mi SSE 8.1 mph 17.3 mph N/A   Clear
2:55 PM 98.1 °F 29.3 °F 9% 30.24 in 10.0 mi East 5.8 mph - N/A   Clear
3:15 PM 97.7 °F 29.3 °F 9% 30.23 in 10.0 mi South 6.9 mph - N/A   Clear
3:35 PM 96.8 °F 29.3 °F 9% 30.23 in 10.0 mi SE 10.4 mph 16.1 mph N/A   Clear
4:15 PM 99.0 °F 29.8 °F 9% 30.22 in 10.0 mi SE 10.4 mph - N/A   Clear
4:35 PM 98.4 °F 29.8 °F 9% 30.22 in 10.0 mi South 5.8 mph - N/A   Clear
4:55 PM 99.3 °F 30.2 °F 9% 30.22 in 10.0 mi ESE 11.5 mph 17.3 mph N/A   Clear
5:15 PM 97.3 °F 29.7 °F 9% 30.21 in 10.0 mi East 11.5 mph - N/A   Clear
5:35 PM 95.5 °F 29.1 °F 9% 30.21 in 10.0 mi ESE 8.1 mph 18.4 mph N/A   Clear
5:55 PM 94.3 °F 28.8 °F 10% 30.21 in 10.0 mi South 3.5 mph - N/A   Clear
6:15 PM 94.3 °F 28.6 °F 10% 30.22 in 10.0 mi ESE 4.6 mph - N/A   Clear
6:35 PM 93.7 °F 28.2 °F 10% 30.22 in 10.0 mi SE 6.9 mph - N/A   Clear
6:55 PM 92.7 °F 29.1 °F 10% 30.23 in 10.0 mi ESE 13.8 mph 17.3 mph N/A   Clear
7:15 PM 91.8 °F 29.3 °F 11% 30.24 in 10.0 mi NE 11.5 mph - N/A   Clear
7:35 PM 90.0 °F 29.8 °F 12% 30.24 in 10.0 mi NE 6.9 mph - N/A   Clear
7:55 PM 88.5 °F 30.0 °F 12% 30.24 in 10.0 mi North 8.1 mph - N/A   Clear
8:15 PM 89.1 °F 29.3 °F 12% 30.25 in 10.0 mi Calm Calm - N/A   Clear
8:35 PM 88.7 °F 28.8 °F 12% 30.26 in 10.0 mi East 5.8 mph - N/A   Clear
8:55 PM 86.2 °F 31.3 °F 14% 30.27 in 10.0 mi East 8.1 mph 16.1 mph N/A   Clear
9:15 PM 85.1 °F 32.0 °F 15% 30.28 in 10.0 mi NE 15.0 mph 23.0 mph N/A   Clear
9:35 PM 82.6 °F 31.6 °F 16% 30.28 in 10.0 mi NE 10.4 mph - N/A   Clear
9:55 PM 80.6 °F 30.9 °F 16% 30.28 in 10.0 mi ENE 9.2 mph - N/A   Clear
10:15 PM 78.3 °F 30.0 °F 17% 30.29 in 10.0 mi ENE 6.9 mph - N/A   Clear
10:35 PM 77.9 °F 30.0 °F 17% 30.29 in 10.0 mi East 9.2 mph - N/A   Clear
10:55 PM 78.3 °F 30.2 °F 17% 30.29 in 10.0 mi East 8.1 mph - N/A   Clear
11:15 PM 77.9 °F 30.2 °F 17% 30.29 in 10.0 mi East 8.1 mph - N/A   Clear
11:35 PM 77.9 °F 30.0 °F 17% 30.29 in 10.0 mi East 9.2 mph - N/A   Clear
11:55 PM 75.0 °F 30.0 °F 19% 30.29 in 10.0 mi ENE 6.9 mph - N/A   Clear